Home > Weather > Istanbul > Past weeks

Flag for Turkey Past Weather in Istanbul, Turkey — Yesterday and Last 2 Weeks

Now
75 °F

Passing clouds.


Feels Like: 77 °F
Forecast: 68 / 83 °F
Wind: 6 mph from Northeast

Location: Istanbul Ataturk Airport

Current Time: Aug 30, 2016 at 12:53:42 AM

Latest Report: Aug 29, 2016 at 11:50 PM


Visibility: N/A

Pressure: 29.92 "Hg

Humidity: 69%

Dew Point: 64 °F

Location of IstanbulLocation

Past Weather in Istanbul — Graph

°F

Istanbul Temperature Yesterday

Maximum temperature yesterday: 84 °F (at 5:50 PM)
Minimum temperature yesterday: 70 °F (at 6:50 AM)
Average temperature yesterday: 77 °F

High & Low Weather Summary for the Past Weeks

 TemperatureHumidityPressure
High91 °F (Aug 18, 2:20 PM)89% (Aug 22, 5:20 AM)30.12 "Hg (Aug 22, 5:20 AM)
Low70 °F (Aug 15, 3:20 AM)27% (Aug 18, 1:50 PM)29.83 "Hg (Aug 18, 2:50 AM)
Average79 °F63%29.94 "Hg
* Reported Aug 14 11:20 PM — Aug 29 11:20 PM, Istanbul, Weather by CustomWeather, © 2016

Note: Actual official high and low records may vary slightly from our data, if they occured in-between our weather recording intervals... More about our weather records

Advertising

Istanbul Weather History for the Previous 24 Hours

Scroll right to see more
 ConditionsComfort  
Time TempWeatherWind HumidityBarometerVisibility
11:20 PM
Mon, Aug 29
75 °FPassing clouds.7 mph69%29.92 "HgN/A
10:50 PM75 °FPassing clouds.6 mph69%29.92 "HgN/A
10:20 PM75 °FPassing clouds.8 mph69%29.92 "HgN/A
9:50 PM77 °FClear.7 mph65%29.92 "Hg10 mi
9:20 PM77 °FClear.9 mph65%29.92 "Hg10 mi
8:50 PM79 °FClear.8 mph58%29.92 "Hg10 mi
8:20 PM79 °FPassing clouds.9 mph58%29.92 "HgN/A
7:50 PM79 °FPassing clouds.12 mph54%29.92 "HgN/A
7:20 PM81 °FSunny.9 mph48%29.92 "Hg10 mi
6:50 PM81 °FPassing clouds.10 mph51%29.92 "HgN/A
6:20 PM82 °FPassing clouds.9 mph48%29.89 "HgN/A
5:50 PM84 °FPassing clouds.7 mph45%29.89 "HgN/A
5:20 PM81 °FPassing clouds.8 mph62%29.89 "HgN/A
4:50 PM81 °FPassing clouds.7 mph62%29.89 "HgN/A
4:20 PM81 °FScattered clouds.9 mph62%29.89 "HgN/A
3:50 PM81 °FScattered clouds.9 mph62%29.89 "HgN/A
3:20 PM81 °FScattered clouds.8 mph62%29.89 "HgN/A
2:50 PM82 °FScattered clouds.9 mph58%29.92 "HgN/A
2:20 PM81 °FScattered clouds.9 mph62%29.92 "HgN/A
1:50 PM81 °FScattered clouds.9 mph58%29.92 "HgN/A
1:20 PM79 °FScattered clouds.9 mph61%29.92 "HgN/A
12:50 PM79 °FScattered clouds.9 mph61%29.92 "HgN/A
12:20 PM79 °FScattered clouds.9 mph65%29.95 "HgN/A
11:50 AM79 °FScattered clouds.9 mph61%29.95 "HgN/A
11:20 AM79 °FScattered clouds.8 mph61%29.95 "HgN/A
10:50 AM77 °FScattered clouds.8 mph69%29.95 "HgN/A
10:20 AM75 °FScattered clouds.6 mph74%29.95 "HgN/A
9:50 AM77 °FScattered clouds.5 mph61%29.95 "HgN/A
9:20 AM77 °FScattered clouds.5 mph65%29.95 "HgN/A
8:50 AM77 °FScattered clouds.7 mph65%29.95 "HgN/A
8:20 AM77 °FPassing clouds.6 mph65%29.95 "HgN/A
7:50 AM75 °FScattered clouds.6 mph69%29.95 "HgN/A
7:20 AM72 °FPassing clouds.6 mph78%29.95 "HgN/A
6:50 AM70 °FPassing clouds.7 mph83%29.95 "HgN/A
6:20 AM72 °FPassing clouds.5 mph83%29.95 "HgN/A
5:50 AM73 °FPassing clouds.6 mph74%29.95 "HgN/A
5:20 AM73 °FPassing clouds.6 mph74%29.95 "HgN/A
4:50 AM73 °FPassing clouds.5 mph74%29.95 "HgN/A
4:20 AM72 °FPassing clouds.6 mph78%29.95 "HgN/A
3:50 AM75 °FPassing clouds.6 mph69%29.95 "HgN/A
3:20 AM75 °FPassing clouds.8 mph69%29.95 "HgN/A
2:50 AM77 °FPassing clouds.7 mph65%29.95 "HgN/A
2:20 AM75 °FPassing clouds.7 mph69%29.95 "HgN/A
1:50 AM75 °FPassing clouds.6 mph69%29.98 "HgN/A
1:20 AM73 °FPassing clouds.7 mph74%29.98 "HgN/A
12:50 AM75 °FPassing clouds.8 mph74%29.98 "HgN/A
12:20 AM75 °FPassing clouds.7 mph69%29.98 "HgN/A
Weather by CustomWeather, © 2016

See weather overviewHow to use our weather pages